FW6537 Weather Reports


time (UTC)temp
C
wind
direction
speed
KPH
gust
KPH
rain 1hr
cm
rain 24hr
cm
rain mn
cm
humidity
%
barometer
mb
20260904110128 19 73 0.0 3.2 0.00 0.00 0.00 91 1013.0
20260904104625 19 89 0.0 3.2 0.00 0.00 0.00 91 1012.8
20260904103140 19 84 0.0 1.6 0.00 0.00 0.00 91 1012.9
20260904101632 19 98 0.0 0.0 0.00 0.00 0.00 91 1012.6
20260904100126 20 98 0.0 1.6 0.00 0.00 0.00 90 1012.3
20260904094640 20 95 0.0 4.8 0.00 0.00 0.00 90 1012.2
20260904093138 20 95 0.0 3.2 0.00 0.00 0.00 89 1012.1
20260904091655 20 89 1.6 11.3 0.00 0.00 0.00 89 1012.2
20260904090134 20 101 0.0 3.2 0.00 0.00 0.00 89 1012.1
20260904084630 20 117 0.0 1.6 0.00 0.00 0.00 90 1012.1
20260904083122 20 96 0.0 4.8 0.00 0.00 0.00 89 1012.0
20260904081646 20 99 0.0 6.4 0.00 0.00 0.00 90 1011.8
20260904080131 20 139 0.0 3.2 0.00 0.00 0.00 92 1011.7
20260904074627 20 95 0.0 1.6 0.00 0.00 0.00 94 1011.6
20260904073125 20 78 0.0 1.6 0.00 0.00 0.00 95 1011.5
20260904071625 20 78 0.0 1.6 0.00 0.00 0.00 95 1011.3
20260904070124 20 73 0.0 0.0 0.00 0.00 0.00 95 1011.3
20260904064639 20 73 0.0 0.0 0.00 0.00 0.00 94 1011.2
20260904063134 20 73 0.0 0.0 0.00 0.00 0.00 94 1011.3
20260904061625 20 72 0.0 0.0 0.00 0.00 0.00 94 1011.3
20260904060136 20 73 0.0 0.0 0.00 0.00 0.00 94 1011.7
20260904054633 20 73 0.0 1.6 0.00 0.00 0.00 93 1011.8
20260904053147 20 72 0.0 1.6 0.00 0.00 0.00 94 1012.0
20260904051622 20 72 0.0 1.6 0.00 0.00 0.00 94 1012.0
20260904050138 20 94 0.0 0.0 0.00 0.00 0.00 94 1012.0
20260904044636 20 94 0.0 1.6 0.00 0.00 0.00 94 1012.2
20260904043135 21 100 0.0 1.6 0.00 0.00 0.00 94 1012.0
20260904041626 21 120 0.0 0.0 0.00 0.00 0.00 94 1011.8
20260904040142 21 120 0.0 0.0 0.00 0.00 0.00 94 1011.8
20260904034634 21 134 0.0 0.0 0.00 0.00 0.00 93 1011.8
20260904033129 21 134 0.0 0.0 0.00 0.00 0.00 93 1011.9
20260904031648 21 134 0.0 0.0 0.00 0.00 0.00 92 1012.0
20260904030125 21 134 0.0 0.0 0.00 0.00 0.00 92 1012.1
20260904024644 21 134 0.0 0.0 0.00 0.08 0.00 91 1012.1
20260904021636 22 134 0.0 0.0 0.00 0.08 0.00 90 1012.1
20260904020139 22 134 0.0 0.0 0.00 0.08 0.00 88 1012.3
20260904014645 22 134 0.0 0.0 0.00 0.58 0.00 87 1012.3
20260904013138 22 134 0.0 0.0 0.00 0.58 0.00 86 1012.1
20260904011639 22 135 0.0 0.0 0.00 0.58 0.00 85 1012.2
20260904010138 23 135 0.0 0.0 0.00 0.58 0.00 83 1012.3
20260904004636 23 135 0.0 0.0 0.00 0.58 0.00 81 1012.3
20260904003136 23 135 0.0 0.0 0.00 0.58 0.00 79 1012.3
20260904001650 23 135 0.0 0.0 0.00 0.58 0.00 77 1012.0
20260904000130 24 135 0.0 0.0 0.00 0.58 0.00 76 1012.0
20260903234646 24 135 0.0 0.0 0.00 0.58 0.00 75 1012.0
20260903233126 25 135 0.0 0.0 0.00 0.58 0.00 73 1012.1
20260903231622 25 136 0.0 0.0 0.00 0.58 0.00 74 1011.9
20260903230137 25 176 0.0 0.0 0.00 0.58 0.00 74 1011.4
20260903224636 26 176 0.0 0.0 0.00 0.58 0.00 72 1011.4
20260903223135 26 176 0.0 0.0 0.00 0.58 0.00 70 1011.1
20260903221653 27 127 0.0 1.6 0.00 0.58 0.00 67 1011.3
20260903220127 27 100 0.0 1.6 0.00 0.58 0.00 67 1011.1
20260903214643 27 100 0.0 3.2 0.00 0.58 0.00 65 1011.4
20260903213121 27 111 0.0 3.2 0.00 0.58 0.00 64 1011.4
20260903211622 28 112 0.0 1.6 0.00 0.58 0.00 62 1011.3
20260903210134 28 124 1.6 4.8 0.00 0.58 0.00 63 1011.5
20260903204634 28 143 1.6 6.4 0.00 0.58 0.00 63 1011.6
20260903203127 27 97 0.0 6.4 0.00 0.58 0.00 62 1011.7
20260903201621 28 116 3.2 6.4 0.00 0.58 0.00 62 1011.6
20260903200134 28 100 1.6 6.4 0.00 0.58 0.00 63 1011.7
20260903194625 28 68 0.0 6.4 0.00 0.58 0.00 63 1011.7
20260903193133 28 70 1.6 8.0 0.00 0.58 0.00 62 1012.0
20260903191630 28 51 1.6 6.4 0.00 0.58 0.00 63 1012.3
20260903190123 27 72 1.6 8.0 0.00 0.58 0.00 62 1012.2
20260903184658 27 96 3.2 11.3 0.00 0.58 0.00 61 1012.2
20260903183134 27 95 1.6 12.9 0.00 0.58 0.00 64 1012.3
20260903181707 27 130 1.6 8.0 0.00 0.58 0.00 62 1012.5
20260903180132 27 86 3.2 8.0 0.00 0.58 0.00 66 1012.4
20260903174630 27 96 3.2 6.4 0.00 0.58 0.00 65 1012.5
20260903173123 27 82 1.6 12.9 0.00 0.58 0.00 71 1012.5
20260903171632 26 349 1.6 4.8 0.00 0.58 0.00 73 1012.6
20260903170134 26 109 0.0 1.6 0.00 0.58 0.00 73 1012.7
20260903164630 26 92 0.0 8.0 0.00 0.61 0.00 74 1012.7
20260903163140 25 128 1.6 6.4 0.00 0.61 0.00 77 1012.9
20260903161634 25 73 4.8 9.7 0.00 0.61 0.00 79 1012.8
20260903160127 25 116 3.2 8.0 0.00 0.61 0.00 79 1012.9
20260903154639 24 82 1.6 6.4 0.00 1.52 0.00 83 1013.0
20260903153223 25 108 1.6 8.0 0.00 1.52 0.00 83 1013.0
20260903151626 23 85 1.6 6.4 0.00 1.52 0.00 87 1013.3
20260903150140 23 79 1.6 4.8 0.00 1.52 0.00 89 1013.5
20260903144640 22 60 0.0 4.8 0.00 3.33 0.00 90 1013.3
20260903143128 22 50 1.6 4.8 0.00 3.33 0.00 91 1013.2
20260903141623 22 101 0.0 8.0 0.00 3.33 0.00 91 1013.2
20260903140139 22 97 1.6 3.2 0.00 3.33 0.00 92 1013.0
20260903134623 22 68 1.6 6.4 0.00 3.40 0.00 91 1013.0
20260903133126 22 77 1.6 14.5 0.00 3.40 0.00 90 1013.0